Regional Weather Roundup
Issued by NWS

Home | Current Version | Previous Version | Text Only | Print | Product List | Glossary On
Versions: 1 2 3 4 5 6 7 8 9 10 11 12 13 14 15 16 17 18 19 20 21 22 23 24 25 26 27
000
ASUS44 KBMX 272310
RWRAL

ALABAMA REGIONAL WEATHER ROUNDUP
NATIONAL WEATHER SERVICE BIRMINGHAM AL
600 PM CDT SAT MAY 27 2017

NOTE: "FAIR" INDICATES FEW OR NO CLOUDS BELOW 12,000 FEET
WITH NO SIGNIFICANT WEATHER AND/OR OBSTRUCTIONS TO VISIBILITY.

THE REMARK "TC" DENOTES TEMPERATURE IN DEGREES CELSIUS.

ALZ001>011-014-016>018-020-280000-
NORTH ALABAMA

CITY           SKY/WX    TMP DP  RH WIND       PRES   REMARKS
MUSCLE SHOALS  PTSUNNY   87  71  58 SW12      29.90F HX  93
HUNTSVILLE     PTSUNNY   84  72  67 SW12      29.92S
DECATUR        PTSUNNY   85  71  63 SW10      29.92S HX  90
HALEYVILLE     PTSUNNY   83  73  72 SW9       29.95S
GADSDEN        CLOUDY    82  72  71 SW7       29.95S
$$

ALZ012-013-022-023-030>036-040>044-280000-
WEST CENTRAL ALABAMA

CITY           SKY/WX    TMP DP  RH WIND       PRES   REMARKS
TUSCALOOSA     MOSUNNY   86  71  60 SW14      29.92F HX  91
$$

ALZ015-024>027-033>036-040>044-280000-
CENTRAL ALABAMA

CITY           SKY/WX    TMP DP  RH WIND       PRES   REMARKS
BIRMINGHAM     PTSUNNY   85  70  60 SW16      29.95F
MONTGOMERY     SUNNY     87  66  49 SW9       29.96F
SHELBY CO ARPT SUNNY     85  73  67 S8        29.94F HX  91
MAXWELL AFB    SUNNY     87  70  56 SW9       29.95F HX  91
GREENVILLE     FAIR      86  65  49 SW7       29.97F
$$

ALZ019-021-028-029-037-038-045>048-280000-
EAST CENTRAL ALABAMA

CITY           SKY/WX    TMP DP  RH WIND       PRES   REMARKS
ANNISTON       CLOUDY    83  70  64 SW9       29.95F
ALEXANDER CITY SUNNY     82  70  66 SW10G16   29.97F
AUBURN         SUNNY     82  70  66 SW10      29.99F
$$

ALZ051>064-280000-
SOUTHWEST ALABAMA

CITY           SKY/WX    TMP DP  RH WIND       PRES   REMARKS
MOBILE         MOSUNNY   83  73  72 SW10      30.01F
BROOKLEY FIELD PTSUNNY   83  77  82 S9        30.01F HX  92
EVERGREEN      MOSUNNY   88  70  55 SW5       29.99F HX  93
$$

ALZ049-050-065>069-280000-
SOUTHEAST ALABAMA

CITY           SKY/WX    TMP DP  RH WIND       PRES   REMARKS
DOTHAN         SUNNY     87  66  49 W7        30.02F
OZARK          SUNNY     87  68  52 W5        29.98F HX  91
TROY           SUNNY     85  69  58 SW8       29.99F
EUFAULA        PTSUNNY   88  69  53 VRB6      29.97F HX  92
$$




USA.gov is the U.S. government's official web portal to all federal, state and local government web resources and services.